SCP
0 0 -0 -0 0 0 0 -0 0 0 0 0 0 0 0 0 0 0 1 0 0 0 0 1 1 0 0 0 0 0 0 0
0 -0 -0 -0 0 0 0 0 0 0 0 0 0 0 0 0 0 0 0 0 1 0 0 1 1 1 1 0 0 0 0 0
0 -0 0 -0 0 0 -0 0 0 0 0 0 0 0 0 0 0 0 0 0 1 1 1 1 1 1 1 1 0 0 0 0
0 0 0 0 0 0 0 0 -0 0 0 0 0 0 0 0 0 0 0 0 3 1 1 1 1 1 1 1 1 1 1 1
0 0 -0 0 0 -0 0 0 0 0 0 0 0 0 0 0 0 0 0 0 5 2 2 2 2 2 1 1 1 1 1 1
0 0 0 0 -0 0 0 0 0 0 0 0 0 0 0 0 0 0 0 0 4 4 2 2 2 2 2 2 2 2 1 1
0 0 0 0 0 0 0 0 0 0 0 0 -0 0 0 0 0 0 0 0 1 5 4 2 1 2 2 2 2 2 2 2
0 0 0 -0 0 0 0 0 0 0 0 0 0 0 0 0 0 0 0 0 1 1 4 3 1 1 2 2 2 2 1 1
0 0 -0 0 0 0 0 0 0 0 0 0 0 0 0 0 0 0 0 0 1 2 6 5 2 2 4 2 1 1 1 2
0 0 0 0 0 0 0 0 0 0 0 0 0 0 0 0 0 0 0 0 0 3 7 5 3 3 4 3 2 1 2 2
0 0 0 0 0 0 0 0 0 0 0 0 0 0 0 0 0 0 0 0 0 4 6 9 7 4 3 3 2 2 2 3
0 0 0 0 0 0 0 0 0 0 0 0 0 0 0 0 0 0 0 1 1 4 5 6 3 7 7 7 4 4 3 2
0 0 0 0 0 0 0 0 0 0 0 0 0 0 0 0 0 0 0 1 1 3 3 3 4 4 8 6 4 3 3 3
0 0 -0 0 0 0 0 0 0 0 0 0 0 0 0 0 0 0 1 1 1 0 0 1 2 3 4 5 4 4 3 3
0 0 0 0 0 0 0 0 0 0 0 0 0 0 0 0 0 0 2 1 2 2 -0 0 2 2 4 5 3 2 3 3
0 0 0 0 0 0 0 0 0 0 0 0 0 0 0 0 0 1 2 2 3 2 3 1 1 3 3 2 3 3 2 2
0 0 0 0 0 -0 0 0 0 0 0 0 0 0 0 0 1 1 1 2 3 3 3 2 2 2 1 1 2 1 1 2
0 0 0 0 0 0 0 0 0 0 0 0 0 0 0 0 2 1 1 1 1 1 2 2 3 1 1 1 1 0 1 2
0 0 0 0 0 0 0 -0 0 0 0 0 0 0 0 0 1 1 1 1 1 1 2 2 2 1 2 3 2 2 2 2
0 0 0 0 0 0 0 0 0 -0 0 0 0 0 0 1 1 1 0 0 1 1 1 1 2 2 2 1 1 2 2 3
Wind_Speed_500mb
9 19 25 26 18 8 13 39 5 11 8 5 6 20 21 22 20 31 25 21 17 19 26 29 28 27 25 22 17 11 5 7
13 31 39 42 10 5 12 23 8 11 13 10 19 12 12 7 15 28 22 23 22 23 27 30 31 30 28 24 19 15 11 10
25 34 41 35 28 28 25 20 14 11 3 23 21 20 15 9 16 21 28 27 23 28 29 33 34 34 32 27 23 20 19 16
28 40 43 35 26 22 21 16 28 9 16 1 18 22 12 9 15 19 27 35 37 27 34 37 40 38 36 31 28 27 25 23
38 41 39 19 12 26 22 26 15 18 9 8 29 12 10 6 14 20 22 33 41 40 38 44 47 46 42 37 34 33 32 31
39 35 39 40 42 19 22 29 15 10 6 14 7 11 3 15 16 26 35 39 43 45 48 53 57 56 52 47 42 40 41 39
44 43 41 47 34 48 32 2 32 18 18 23 36 24 17 28 27 28 28 42 49 46 53 48 65 64 61 58 51 47 49 47
43 40 43 54 48 45 24 14 23 44 38 38 31 22 25 33 38 41 46 43 56 56 57 55 49 65 66 68 61 55 53 50
50 61 65 54 57 52 39 30 32 40 38 37 47 48 27 40 47 49 44 49 46 64 63 60 59 46 59 54 62 65 59 50
70 68 68 53 69 60 58 33 49 74 57 39 44 52 55 50 51 48 56 59 63 60 66 63 65 52 63 56 48 46 42 36
79 77 75 72 61 58 66 70 63 72 63 63 54 50 56 59 50 47 60 63 63 59 66 61 73 57 58 53 47 42 33 36
78 78 74 60 61 69 74 78 71 75 66 71 71 44 64 56 50 53 50 55 51 43 51 60 64 70 58 57 52 48 44 42
59 70 62 74 65 58 73 82 69 84 72 69 75 55 71 41 51 54 58 59 45 38 43 57 64 64 67 62 58 45 49 39
59 61 72 63 73 52 69 69 64 70 69 64 49 57 36 46 61 60 51 40 37 27 37 54 66 63 67 50 53 46 36 34
63 58 60 58 67 54 77 77 65 58 64 63 67 42 41 54 57 51 42 33 36 36 44 57 56 50 58 48 43 41 41 33
55 51 55 58 61 56 68 72 61 59 48 49 68 42 47 61 56 36 24 27 31 41 49 51 46 43 46 49 45 34 32 30
55 51 54 52 54 57 46 50 49 44 49 67 62 55 47 55 54 35 43 42 44 45 54 59 49 43 40 42 42 30 29 28
55 55 46 47 53 49 45 45 53 50 53 55 57 50 49 48 34 37 36 32 38 43 48 52 48 36 39 36 32 22 25 26
60 50 53 46 51 46 49 50 53 57 59 50 42 75 73 34 32 28 23 24 28 35 46 49 39 37 33 36 29 32 31 28
57 45 39 40 36 46 39 43 39 53 56 48 63 82 46 41 34 23 19 23 30 41 42 42 36 36 39 28 24 18 18 23
Wind_Direction_500mb
217 236 255 266 354 61 217 268 305 321 155 261 65 77 74 117 144 175 211 183 183 182 189 191 191 193 195 198 199 210 244 317
254 258 252 256 200 10 254 252 151 283 324 103 125 120 98 110 159 182 197 207 190 194 196 197 199 201 204 209 214 228 251 280
250 253 261 277 259 138 303 306 266 205 75 75 113 135 127 132 176 191 193 227 204 200 206 208 207 209 212 219 227 240 256 273
250 247 249 256 271 300 295 301 275 167 243 115 154 127 115 147 198 208 211 209 237 222 215 218 216 217 219 226 235 246 255 272
252 270 286 293 332 286 279 302 288 39 113 351 116 125 129 192 224 214 221 213 236 236 229 222 226 221 224 227 236 247 255 262
271 273 276 294 318 321 310 266 68 20 222 285 273 172 201 270 256 220 208 213 222 240 241 234 224 223 222 226 233 242 250 256
254 261 274 282 269 275 273 200 287 312 294 288 286 259 330 287 276 275 246 211 216 227 251 241 230 227 224 226 231 237 247 252
253 275 284 275 286 290 257 248 279 307 266 259 260 303 291 282 294 290 289 240 221 218 223 252 246 235 230 228 231 234 243 250
254 254 260 273 278 284 268 254 230 226 291 297 303 309 287 281 281 281 279 286 255 222 217 227 236 230 242 232 234 234 237 244
254 259 272 279 284 287 284 295 274 292 287 272 276 289 298 286 283 285 284 290 291 245 222 230 222 211 239 241 243 232 229 231
255 257 258 266 273 282 282 279 278 281 277 289 276 271 278 274 277 291 287 287 282 266 223 232 217 208 219 232 233 229 226 228
253 254 259 263 270 271 274 281 282 282 268 273 282 273 283 276 287 289 293 289 284 263 227 232 237 214 215 220 221 218 220 225
255 260 264 269 267 258 267 269 275 275 274 278 276 273 267 278 289 298 297 291 284 252 225 233 248 220 212 221 213 224 224 223
253 259 257 260 264 266 270 278 273 279 277 276 269 271 273 285 286 286 288 279 266 252 239 239 235 228 215 216 217 210 233 231
251 248 261 255 265 265 257 256 256 265 277 276 279 269 280 284 290 289 274 270 246 238 231 238 232 233 213 214 227 226 221 230
259 254 253 247 256 259 257 257 257 248 265 268 271 266 272 280 287 280 245 237 235 233 214 226 231 227 211 211 218 208 222 230
253 250 247 253 257 267 274 265 258 270 268 262 258 258 261 273 279 252 252 240 238 224 212 216 214 203 200 201 219 222 223 231
260 260 260 263 260 252 256 262 262 245 248 266 281 295 272 277 240 239 249 249 234 217 213 207 204 202 197 201 223 225 227 238
258 266 266 271 269 272 270 267 269 269 264 261 270 276 273 260 226 229 241 234 209 195 195 200 195 180 198 202 206 204 212 236
250 252 258 258 269 257 263 266 261 267 266 252 255 253 250 236 198 202 203 193 187 187 196 180 181 185 197 196 210 227 225 225
Wind_Speed_850mb
9 19 25 26 18 8 13 39 5 11 8 5 6 20 21 22 20 31 25 21 17 19 26 29 28 27 25 22 17 11 5 7
13 31 39 42 10 5 12 23 8 11 13 10 19 12 12 7 15 28 22 23 22 23 27 30 31 30 28 24 19 15 11 10
25 34 41 35 28 28 25 20 14 11 3 23 21 20 15 9 16 21 28 27 23 28 29 33 34 34 32 27 23 20 19 16
28 40 43 35 26 22 21 16 28 9 16 1 18 22 12 9 15 19 27 35 37 27 34 37 40 38 36 31 28 27 25 23
38 41 39 19 12 26 22 26 15 18 9 8 29 12 10 6 14 20 22 33 41 40 38 44 47 46 42 37 34 33 32 31
39 35 39 40 42 19 22 29 15 10 6 14 7 11 3 15 16 26 35 39 43 45 48 53 57 56 52 47 42 40 41 39
44 43 41 47 34 48 32 2 32 18 18 23 36 24 17 28 27 28 28 42 49 46 53 48 65 64 61 58 51 47 49 47
43 40 43 54 48 45 24 14 23 44 38 38 31 22 25 33 38 41 46 43 56 56 57 55 49 65 66 68 61 55 53 50
50 61 65 54 57 52 39 30 32 40 38 37 47 48 27 40 47 49 44 49 46 64 63 60 59 46 59 54 62 65 59 50
70 68 68 53 69 60 58 33 49 74 57 39 44 52 55 50 51 48 56 59 63 60 66 63 65 52 63 56 48 46 42 36
79 77 75 72 61 58 66 70 63 72 63 63 54 50 56 59 50 47 60 63 63 59 66 61 73 57 58 53 47 42 33 36
78 78 74 60 61 69 74 78 71 75 66 71 71 44 64 56 50 53 50 55 51 43 51 60 64 70 58 57 52 48 44 42
59 70 62 74 65 58 73 82 69 84 72 69 75 55 71 41 51 54 58 59 45 38 43 57 64 64 67 62 58 45 49 39
59 61 72 63 73 52 69 69 64 70 69 64 49 57 36 46 61 60 51 40 37 27 37 54 66 63 67 50 53 46 36 34
63 58 60 58 67 54 77 77 65 58 64 63 67 42 41 54 57 51 42 33 36 36 44 57 56 50 58 48 43 41 41 33
55 51 55 58 61 56 68 72 61 59 48 49 68 42 47 61 56 36 24 27 31 41 49 51 46 43 46 49 45 34 32 30
55 51 54 52 54 57 46 50 49 44 49 67 62 55 47 55 54 35 43 42 44 45 54 59 49 43 40 42 42 30 29 28
55 55 46 47 53 49 45 45 53 50 53 55 57 50 49 48 34 37 36 32 38 43 48 52 48 36 39 36 32 22 25 26
60 50 53 46 51 46 49 50 53 57 59 50 42 75 73 34 32 28 23 24 28 35 46 49 39 37 33 36 29 32 31 28
57 45 39 40 36 46 39 43 39 53 56 48 63 82 46 41 34 23 19 23 30 41 42 42 36 36 39 28 24 18 18 23
Wind_Direction_850mb
217 236 255 266 354 61 217 268 305 321 155 261 65 77 74 117 144 175 211 183 183 182 189 191 191 193 195 198 199 210 244 317
254 258 252 256 200 10 254 252 151 283 324 103 125 120 98 110 159 182 197 207 190 194 196 197 199 201 204 209 214 228 251 280
250 253 261 277 259 138 303 306 266 205 75 75 113 135 127 132 176 191 193 227 204 200 206 208 207 209 212 219 227 240 256 273
250 247 249 256 271 300 295 301 275 167 243 115 154 127 115 147 198 208 211 209 237 222 215 218 216 217 219 226 235 246 255 272
252 270 286 293 332 286 279 302 288 39 113 351 116 125 129 192 224 214 221 213 236 236 229 222 226 221 224 227 236 247 255 262
271 273 276 294 318 321 310 266 68 20 222 285 273 172 201 270 256 220 208 213 222 240 241 234 224 223 222 226 233 242 250 256
254 261 274 282 269 275 273 200 287 312 294 288 286 259 330 287 276 275 246 211 216 227 251 241 230 227 224 226 231 237 247 252
253 275 284 275 286 290 257 248 279 307 266 259 260 303 291 282 294 290 289 240 221 218 223 252 246 235 230 228 231 234 243 250
254 254 260 273 278 284 268 254 230 226 291 297 303 309 287 281 281 281 279 286 255 222 217 227 236 230 242 232 234 234 237 244
254 259 272 279 284 287 284 295 274 292 287 272 276 289 298 286 283 285 284 290 291 245 222 230 222 211 239 241 243 232 229 231
255 257 258 266 273 282 282 279 278 281 277 289 276 271 278 274 277 291 287 287 282 266 223 232 217 208 219 232 233 229 226 228
253 254 259 263 270 271 274 281 282 282 268 273 282 273 283 276 287 289 293 289 284 263 227 232 237 214 215 220 221 218 220 225
255 260 264 269 267 258 267 269 275 275 274 278 276 273 267 278 289 298 297 291 284 252 225 233 248 220 212 221 213 224 224 223
253 259 257 260 264 266 270 278 273 279 277 276 269 271 273 285 286 286 288 279 266 252 239 239 235 228 215 216 217 210 233 231
251 248 261 255 265 265 257 256 256 265 277 276 279 269 280 284 290 289 274 270 246 238 231 238 232 233 213 214 227 226 221 230
259 254 253 247 256 259 257 257 257 248 265 268 271 266 272 280 287 280 245 237 235 233 214 226 231 227 211 211 218 208 222 230
253 250 247 253 257 267 274 265 258 270 268 262 258 258 261 273 279 252 252 240 238 224 212 216 214 203 200 201 219 222 223 231
260 260 260 263 260 252 256 262 262 245 248 266 281 295 272 277 240 239 249 249 234 217 213 207 204 202 197 201 223 225 227 238
258 266 266 271 269 272 270 267 269 269 264 261 270 276 273 260 226 229 241 234 209 195 195 200 195 180 198 202 206 204 212 236
250 252 258 258 269 257 263 266 261 267 266 252 255 253 250 236 198 202 203 193 187 187 196 180 181 185 197 196 210 227 225 225